QPF
0.05 0.06 0.06 0.07 0.06 0.06 0.06 0.07 0.09 0.08 0.05 0.02 0.01 0.01 0.02 0.04 0.06 0.04 0.03 0.03 0.02 0.01 0.01 0.01 0.02 0.02 0.02 0.03 0.04 0.06 0.07 0.07 0.06 0.08 0.09 0.10 0.11 0.10
0.05 0.05 0.05 0.05 0.06 0.06 0.06 0.07 0.09 0.09 0.05 0.02 0.02 0.01 0.02 0.03 0.05 0.04 0.03 0.03 0.02 0.01 0.01 0.01 0.01 0.02 0.01 0.02 0.03 0.05 0.06 0.05 0.04 0.04 0.05 0.07 0.11 0.12
0.06 0.05 0.04 0.05 0.05 0.07 0.07 0.07 0.07 0.06 0.06 0.03 0.03 0.02 0.04 0.05 0.06 0.06 0.05 0.04 0.02 0.01 0.01 0.01 0.01 0.01 0.01 0.02 0.03 0.04 0.04 0.04 0.03 0.03 0.02 0.03 0.04 0.06
0.06 0.06 0.04 0.05 0.07 0.08 0.09 0.09 0.08 0.08 0.07 0.04 0.03 0.02 0.03 0.04 0.08 0.09 0.06 0.05 0.04 0.03 0.03 0.03 0.03 0.02 0.02 0.02 0.03 0.03 0.04 0.03 0.03 0.02 0.02 0.02 0.03 0.03
0.07 0.07 0.06 0.07 0.07 0.09 0.10 0.10 0.09 0.08 0.08 0.06 0.04 0.04 0.03 0.02 0.04 0.05 0.06 0.06 0.04 0.03 0.04 0.04 0.04 0.03 0.03 0.03 0.03 0.03 0.03 0.03 0.02 0.02 0.02 0.02 0.02 0.02
0.10 0.09 0.07 0.07 0.07 0.08 0.07 0.07 0.07 0.08 0.08 0.08 0.06 0.04 0.04 0.03 0.04 0.04 0.05 0.06 0.05 0.04 0.05 0.05 0.05 0.04 0.04 0.04 0.04 0.03 0.03 0.02 0.02 0.02 0.02 0.01 0.01 0.02
0.07 0.07 0.07 0.06 0.05 0.05 0.04 0.04 0.05 0.05 0.05 0.05 0.04 0.04 0.04 0.04 0.04 0.03 0.05 0.05 0.05 0.04 0.06 0.05 0.05 0.05 0.06 0.05 0.04 0.03 0.02 0.02 0.01 0.01 0.01 0.02 0.02 0.01
0.03 0.04 0.03 0.05 0.05 0.04 0.03 0.03 0.03 0.03 0.03 0.03 0.03 0.02 0.03 0.04 0.04 0.03 0.04 0.04 0.04 0.04 0.06 0.05 0.05 0.06 0.09 0.06 0.04 0.02 0.02 0.02 0.01 0.01 0.02 0.02 0.03 0.02
0.03 0.03 0.03 0.03 0.04 0.04 0.04 0.04 0.03 0.03 0.03 0.04 0.03 0.02 0.03 0.03 0.05 0.04 0.05 0.05 0.05 0.05 0.06 0.06 0.05 0.05 0.06 0.05 0.03 0.02 0.02 0.02 0.01 0.01 0.03 0.03 0.02 0.03
0.03 0.04 0.04 0.05 0.05 0.05 0.05 0.04 0.04 0.03 0.04 0.04 0.04 0.03 0.04 0.05 0.05 0.05 0.05 0.05 0.05 0.06 0.07 0.06 0.05 0.05 0.05 0.04 0.03 0.03 0.02 0.02 0.01 0.01 0.02 0.02 0.01 0.01
0.02 0.02 0.02 0.03 0.02 0.02 0.02 0.02 0.02 0.02 0.01 0.03 0.03 0.03 0.03 0.03 0.05 0.05 0.04 0.04 0.04 0.07 0.08 0.07 0.07 0.06 0.06 0.06 0.03 0.03 0.04 0.02 0.01 0.01 0.01 0.01 0.02 0.03
0.02 0.02 0.01 0.01 0.01 0.01 0.01 0.01 0.01 0.01 0.01 0.01 0.02 0.02 0.02 0.03 0.05 0.06 0.06 0.06 0.07 0.06 0.04 0.05 0.04 0.04 0.05 0.06 0.04 0.03 0.02 0.02 0.01 0.01 0.02 0.02 0.03 0.02
0.01 0.01 0.01 0.00 0.00 0.00 0.01 0.01 0.01 0.01 0.01 0.01 0.01 0.01 0.02 0.03 0.04 0.04 0.05 0.05 0.05 0.04 0.04 0.04 0.03 0.03 0.04 0.04 0.04 0.03 0.02 0.02 0.02 0.02 0.02 0.02 0.03 0.02
0.01 0.01 0.01 0.00 0.00 0.00 0.00 0.01 0.01 0.01 0.01 0.01 0.01 0.02 0.03 0.03 0.04 0.03 0.03 0.04 0.04 0.04 0.05 0.05 0.05 0.05 0.04 0.04 0.04 0.03 0.02 0.02 0.03 0.02 0.02 0.04 0.04 0.04
0.02 0.01 0.01 0.00 0.00 0.01 0.01 0.01 0.01 0.02 0.01 0.02 0.02 0.03 0.03 0.04 0.04 0.04 0.04 0.04 0.04 0.04 0.04 0.05 0.05 0.05 0.05 0.05 0.04 0.04 0.03 0.03 0.04 0.04 0.05 0.05 0.04 0.04
0.03 0.02 0.01 0.01 0.01 0.01 0.02 0.02 0.03 0.03 0.03 0.02 0.03 0.03 0.04 0.04 0.04 0.03 0.03 0.04 0.04 0.04 0.04 0.04 0.05 0.05 0.05 0.05 0.05 0.04 0.03 0.04 0.04 0.05 0.06 0.06 0.05 0.05
0.03 0.02 0.02 0.02 0.03 0.02 0.03 0.03 0.03 0.04 0.05 0.05 0.04 0.05 0.05 0.05 0.04 0.03 0.03 0.02 0.02 0.03 0.04 0.04 0.05 0.05 0.05 0.06 0.06 0.04 0.03 0.04 0.04 0.05 0.06 0.05 0.05 0.04
0.02 0.02 0.02 0.03 0.04 0.04 0.03 0.03 0.03 0.03 0.03 0.04 0.03 0.04 0.04 0.04 0.03 0.03 0.03 0.02 0.02 0.02 0.03 0.03 0.03 0.04 0.05 0.05 0.05 0.04 0.04 0.04 0.06 0.07 0.07 0.06 0.06 0.05
0.03 0.03 0.04 0.04 0.04 0.05 0.05 0.05 0.05 0.05 0.06 0.06 0.06 0.05 0.05 0.04 0.04 0.04 0.04 0.04 0.05 0.04 0.04 0.03 0.03 0.03 0.04 0.04 0.03 0.04 0.05 0.07 0.08 0.07 0.06 0.06 0.06 0.05
0.02 0.02 0.03 0.03 0.03 0.03 0.03 0.03 0.04 0.05 0.05 0.06 0.06 0.07 0.06 0.05 0.05 0.04 0.04 0.05 0.06 0.06 0.07 0.06 0.05 0.05 0.04 0.05 0.05 0.05 0.06 0.07 0.06 0.05 0.05 0.05 0.05 0.04
0.02 0.03 0.04 0.03 0.02 0.02 0.02 0.02 0.02 0.03 0.04 0.05 0.05 0.05 0.05 0.06 0.06 0.06 0.05 0.05 0.06 0.07 0.07 0.08 0.08 0.07 0.07 0.08 0.08 0.06 0.05 0.04 0.04 0.04 0.05 0.06 0.05 0.04
0.04 0.03 0.02 0.01 0.01 0.02 0.02 0.02 0.02 0.02 0.03 0.03 0.04 0.04 0.03 0.03 0.04 0.04 0.04 0.05 0.07 0.07 0.08 0.08 0.07 0.07 0.08 0.08 0.09 0.08 0.07 0.07 0.05 0.04 0.04 0.05 0.04 0.04
0.02 0.02 0.02 0.02 0.01 0.01 0.02 0.02 0.02 0.03 0.03 0.03 0.03 0.04 0.04 0.03 0.02 0.02 0.03 0.04 0.05 0.06 0.06 0.05 0.05 0.05 0.07 0.08 0.09 0.08 0.07 0.07 0.07 0.07 0.06 0.04 0.04 0.05
MSLP
1016.45 1016.52 1016.64 1016.78 1016.90 1016.94 1016.86 1016.64 1016.27 1015.79 1015.21 1014.60 1014.00 1013.47 1013.02 1012.68 1012.44 1012.28 1012.18 1012.11 1012.04 1011.95 1011.84 1011.71 1011.55 1011.38 1011.20 1011.02 1010.82 1010.63 1010.42 1010.20 1009.96 1009.71 1009.43 1009.15 1008.86 1008.56
1016.21 1016.20 1016.25 1016.34 1016.43 1016.47 1016.43 1016.29 1016.02 1015.65 1015.19 1014.69 1014.19 1013.71 1013.28 1012.92 1012.63 1012.38 1012.18 1011.99 1011.81 1011.62 1011.42 1011.22 1011.02 1010.83 1010.64 1010.46 1010.29 1010.12 1009.93 1009.74 1009.52 1009.28 1009.02 1008.74 1008.44 1008.14
1015.99 1015.92 1015.91 1015.95 1016.02 1016.06 1016.05 1015.97 1015.80 1015.54 1015.20 1014.81 1014.39 1013.98 1013.58 1013.21 1012.88 1012.56 1012.26 1011.97 1011.68 1011.38 1011.10 1010.82 1010.57 1010.33 1010.12 1009.93 1009.76 1009.59 1009.42 1009.24 1009.03 1008.80 1008.55 1008.27 1007.98 1007.67
1015.82 1015.73 1015.69 1015.70 1015.74 1015.78 1015.80 1015.76 1015.66 1015.48 1015.24 1014.95 1014.61 1014.25 1013.89 1013.52 1013.15 1012.78 1012.40 1012.02 1011.64 1011.26 1010.90 1010.55 1010.23 1009.95 1009.70 1009.48 1009.29 1009.11 1008.93 1008.74 1008.53 1008.31 1008.05 1007.78 1007.47 1007.15
1015.73 1015.63 1015.58 1015.58 1015.61 1015.65 1015.68 1015.67 1015.61 1015.49 1015.31 1015.08 1014.80 1014.48 1014.14 1013.77 1013.39 1012.98 1012.56 1012.13 1011.69 1011.25 1010.83 1010.43 1010.06 1009.72 1009.43 1009.16 1008.93 1008.71 1008.50 1008.29 1008.07 1007.83 1007.56 1007.27 1006.95 1006.60
1015.70 1015.63 1015.59 1015.59 1015.61 1015.65 1015.67 1015.66 1015.61 1015.51 1015.36 1015.15 1014.90 1014.60 1014.28 1013.92 1013.53 1013.12 1012.69 1012.24 1011.78 1011.32 1010.87 1010.43 1010.03 1009.65 1009.31 1008.99 1008.71 1008.44 1008.18 1007.93 1007.67 1007.40 1007.11 1006.79 1006.44 1006.05
1015.70 1015.67 1015.66 1015.66 1015.68 1015.70 1015.70 1015.67 1015.60 1015.49 1015.33 1015.12 1014.87 1014.58 1014.26 1013.91 1013.54 1013.15 1012.74 1012.31 1011.87 1011.43 1010.98 1010.55 1010.12 1009.71 1009.33 1008.96 1008.61 1008.28 1007.97 1007.66 1007.36 1007.04 1006.72 1006.36 1005.97 1005.54
1015.72 1015.72 1015.73 1015.74 1015.75 1015.74 1015.71 1015.64 1015.54 1015.38 1015.19 1014.95 1014.69 1014.39 1014.08 1013.75 1013.41 1013.06 1012.70 1012.32 1011.93 1011.54 1011.13 1010.71 1010.29 1009.87 1009.44 1009.03 1008.62 1008.23 1007.85 1007.48 1007.12 1006.76 1006.39 1006.00 1005.56 1005.07
1015.73 1015.76 1015.77 1015.78 1015.76 1015.73 1015.65 1015.54 1015.38 1015.19 1014.95 1014.69 1014.40 1014.10 1013.80 1013.50 1013.19 1012.89 1012.59 1012.29 1011.97 1011.63 1011.28 1010.90 1010.49 1010.06 1009.61 1009.15 1008.69 1008.23 1007.79 1007.36 1006.94 1006.53 1006.12 1005.68 1005.19 1004.65
1015.74 1015.76 1015.76 1015.75 1015.71 1015.64 1015.52 1015.37 1015.17 1014.94 1014.67 1014.39 1014.09 1013.79 1013.50 1013.22 1012.97 1012.72 1012.48 1012.25 1012.00 1011.72 1011.42 1011.07 1010.68 1010.25 1009.78 1009.28 1008.76 1008.25 1007.74 1007.26 1006.79 1006.33 1005.87 1005.39 1004.86 1004.27
1015.74 1015.74 1015.72 1015.68 1015.61 1015.50 1015.36 1015.18 1014.96 1014.71 1014.43 1014.14 1013.85 1013.56 1013.29 1013.05 1012.82 1012.62 1012.44 1012.25 1012.05 1011.83 1011.56 1011.24 1010.85 1010.41 1009.91 1009.38 1008.81 1008.24 1007.68 1007.14 1006.63 1006.12 1005.62 1005.10 1004.54 1003.91
1015.76 1015.73 1015.67 1015.59 1015.49 1015.36 1015.21 1015.02 1014.80 1014.56 1014.30 1014.03 1013.76 1013.50 1013.25 1013.03 1012.84 1012.66 1012.50 1012.34 1012.16 1011.96 1011.70 1011.38 1010.99 1010.53 1010.01 1009.43 1008.83 1008.21 1007.60 1007.01 1006.45 1005.90 1005.37 1004.82 1004.23 1003.57
1015.80 1015.73 1015.64 1015.53 1015.40 1015.27 1015.11 1014.94 1014.75 1014.54 1014.32 1014.09 1013.85 1013.63 1013.41 1013.20 1013.02 1012.85 1012.68 1012.52 1012.33 1012.11 1011.84 1011.51 1011.10 1010.61 1010.06 1009.45 1008.81 1008.15 1007.50 1006.87 1006.26 1005.68 1005.11 1004.53 1003.92 1003.25
1015.85 1015.74 1015.62 1015.49 1015.36 1015.22 1015.08 1014.94 1014.79 1014.63 1014.47 1014.29 1014.10 1013.90 1013.71 1013.52 1013.33 1013.14 1012.95 1012.75 1012.53 1012.28 1011.98 1011.61 1011.17 1010.67 1010.09 1009.46 1008.79 1008.10 1007.41 1006.74 1006.10 1005.48 1004.87 1004.26 1003.63 1002.94
1015.88 1015.75 1015.61 1015.47 1015.34 1015.21 1015.10 1015.00 1014.90 1014.79 1014.68 1014.56 1014.41 1014.25 1014.08 1013.88 1013.67 1013.46 1013.23 1012.99 1012.72 1012.42 1012.08 1011.68 1011.22 1010.70 1010.11 1009.47 1008.78 1008.08 1007.37 1006.67 1005.99 1005.33 1004.68 1004.04 1003.37 1002.67
1015.86 1015.73 1015.59 1015.45 1015.32 1015.21 1015.13 1015.06 1015.00 1014.95 1014.89 1014.81 1014.71 1014.57 1014.40 1014.20 1013.98 1013.73 1013.46 1013.17 1012.85 1012.51 1012.14 1011.72 1011.26 1010.73 1010.15 1009.51 1008.83 1008.13 1007.40 1006.68 1005.96 1005.26 1004.57 1003.88 1003.17 1002.44
1015.77 1015.65 1015.52 1015.39 1015.28 1015.18 1015.12 1015.08 1015.06 1015.04 1015.02 1014.97 1014.90 1014.78 1014.62 1014.41 1014.17 1013.89 1013.58 1013.26 1012.91 1012.55 1012.16 1011.74 1011.29 1010.78 1010.22 1009.62 1008.96 1008.26 1007.54 1006.80 1006.05 1005.30 1004.55 1003.80 1003.04 1002.26
1015.60 1015.51 1015.41 1015.30 1015.20 1015.12 1015.07 1015.04 1015.04 1015.05 1015.05 1015.03 1014.97 1014.86 1014.71 1014.50 1014.24 1013.95 1013.62 1013.28 1012.92 1012.55 1012.17 1011.77 1011.34 1010.87 1010.36 1009.80 1009.18 1008.50 1007.79 1007.03 1006.25 1005.45 1004.63 1003.81 1002.97 1002.12
1015.39 1015.34 1015.26 1015.17 1015.09 1015.03 1014.99 1014.98 1014.98 1015.00 1015.01 1015.01 1014.96 1014.87 1014.72 1014.51 1014.25 1013.95 1013.62 1013.28 1012.92 1012.57 1012.21 1011.84 1011.45 1011.04 1010.58 1010.06 1009.48 1008.83 1008.13 1007.36 1006.54 1005.69 1004.80 1003.90 1002.97 1002.04
1015.16 1015.15 1015.11 1015.06 1015.00 1014.96 1014.93 1014.93 1014.94 1014.97 1014.99 1014.99 1014.95 1014.87 1014.72 1014.53 1014.28 1013.98 1013.66 1013.33 1012.99 1012.65 1012.32 1011.98 1011.64 1011.27 1010.86 1010.39 1009.85 1009.23 1008.53 1007.75 1006.90 1006.00 1005.04 1004.05 1003.05 1002.03
1014.95 1014.99 1014.99 1014.98 1014.95 1014.93 1014.93 1014.94 1014.96 1015.00 1015.03 1015.04 1015.01 1014.94 1014.81 1014.63 1014.39 1014.11 1013.79 1013.47 1013.14 1012.82 1012.51 1012.21 1011.89 1011.56 1011.18 1010.75 1010.24 1009.64 1008.95 1008.16 1007.29 1006.34 1005.33 1004.28 1003.19 1002.10
1014.78 1014.87 1014.92 1014.95 1014.97 1014.98 1015.00 1015.04 1015.08 1015.13 1015.18 1015.20 1015.18 1015.12 1015.00 1014.83 1014.60 1014.33 1014.02 1013.70 1013.38 1013.06 1012.76 1012.46 1012.16 1011.85 1011.49 1011.08 1010.59 1010.01 1009.33 1008.55 1007.67 1006.70 1005.66 1004.56 1003.42 1002.27
1014.65 1014.78 1014.88 1014.96 1015.02 1015.07 1015.13 1015.20 1015.27 1015.34 1015.39 1015.43 1015.43 1015.37 1015.26 1015.09 1014.86 1014.59 1014.28 1013.95 1013.62 1013.29 1012.98 1012.68 1012.37 1012.06 1011.71 1011.31 1010.84 1010.28 1009.62 1008.86 1007.99 1007.04 1006.00 1004.89 1003.75 1002.58
Thickness
5759 5757 5755 5754 5752 5750 5747 5742 5733 5726 5726 5731 5734 5737 5737 5735 5732 5729 5727 5725 5724 5723 5721 5719 5717 5715 5714 5712 5711 5711 5710 5709 5709 5709 5709 5709 5709 5708
5755 5752 5750 5749 5747 5746 5743 5740 5736 5728 5722 5725 5727 5730 5730 5728 5726 5723 5721 5721 5720 5718 5716 5714 5712 5710 5709 5707 5706 5705 5705 5704 5704 5703 5703 5703 5704 5703
5750 5747 5745 5744 5741 5739 5737 5734 5731 5726 5718 5720 5722 5723 5722 5720 5718 5717 5717 5717 5715 5713 5711 5710 5708 5706 5704 5702 5700 5700 5699 5698 5697 5697 5697 5697 5697 5697
5745 5742 5739 5738 5735 5733 5730 5727 5725 5723 5717 5712 5714 5715 5715 5715 5713 5712 5711 5712 5711 5709 5707 5705 5704 5701 5699 5697 5695 5694 5693 5692 5691 5691 5690 5690 5690 5691
5740 5737 5734 5731 5728 5726 5724 5721 5719 5718 5715 5710 5708 5709 5709 5709 5707 5706 5705 5705 5706 5704 5702 5700 5699 5697 5695 5693 5691 5689 5688 5686 5685 5684 5684 5684 5684 5685
5736 5733 5729 5726 5723 5720 5718 5715 5713 5710 5708 5704 5702 5701 5701 5701 5699 5696 5695 5696 5696 5698 5697 5695 5694 5692 5691 5689 5687 5684 5682 5680 5679 5678 5678 5678 5678 5679
5730 5728 5725 5722 5719 5715 5713 5709 5707 5703 5700 5697 5694 5692 5691 5689 5688 5688 5686 5688 5689 5690 5688 5689 5688 5686 5685 5683 5681 5679 5677 5675 5674 5673 5672 5672 5672 5672
5723 5722 5719 5717 5714 5710 5707 5704 5701 5696 5692 5688 5685 5683 5682 5681 5681 5680 5679 5677 5677 5682 5680 5680 5682 5680 5680 5679 5677 5674 5672 5670 5669 5668 5667 5667 5666 5666
5717 5715 5713 5712 5708 5703 5701 5698 5696 5693 5689 5684 5680 5678 5676 5676 5674 5672 5671 5669 5669 5673 5672 5671 5673 5672 5672 5673 5671 5668 5667 5665 5663 5662 5661 5660 5660 5660
5712 5709 5705 5702 5700 5696 5694 5691 5689 5687 5684 5681 5678 5676 5674 5672 5670 5667 5665 5665 5666 5667 5667 5662 5664 5663 5665 5664 5664 5662 5661 5659 5658 5657 5655 5655 5654 5653
5705 5702 5699 5695 5692 5689 5686 5683 5681 5679 5679 5676 5674 5672 5669 5667 5664 5660 5658 5656 5655 5657 5659 5655 5655 5654 5654 5655 5656 5655 5654 5653 5652 5651 5650 5649 5648 5646
5697 5695 5692 5688 5685 5681 5678 5675 5672 5671 5670 5669 5667 5666 5664 5661 5659 5655 5652 5648 5647 5647 5650 5647 5645 5644 5643 5646 5646 5647 5647 5647 5646 5645 5644 5643 5641 5639
5687 5686 5684 5680 5676 5673 5670 5668 5665 5664 5662 5661 5660 5659 5658 5656 5653 5650 5647 5643 5640 5639 5641 5639 5636 5635 5633 5634 5637 5638 5639 5640 5640 5639 5638 5637 5636 5634
5677 5677 5675 5671 5668 5665 5662 5661 5658 5656 5655 5654 5652 5651 5650 5648 5646 5644 5642 5640 5637 5635 5635 5632 5629 5627 5625 5625 5627 5630 5631 5632 5633 5632 5632 5631 5629 5629
5668 5666 5665 5664 5661 5658 5656 5653 5651 5649 5647 5645 5643 5643 5643 5641 5639 5637 5636 5634 5632 5630 5629 5627 5624 5622 5620 5619 5619 5621 5622 5624 5625 5625 5625 5624 5623 5623
5657 5657 5656 5656 5653 5650 5648 5646 5644 5642 5640 5637 5636 5636 5635 5634 5631 5629 5627 5625 5623 5621 5621 5620 5619 5617 5614 5614 5614 5614 5615 5617 5619 5619 5619 5619 5619 5620
5646 5647 5647 5646 5644 5642 5641 5638 5636 5633 5631 5630 5628 5627 5625 5624 5622 5621 5618 5616 5613 5612 5611 5612 5612 5611 5610 5608 5607 5608 5609 5610 5612 5612 5611 5611 5613 5614
5637 5639 5638 5637 5634 5632 5630 5628 5626 5624 5622 5621 5619 5617 5616 5614 5612 5611 5610 5607 5605 5604 5603 5603 5603 5602 5602 5602 5603 5602 5603 5603 5605 5605 5605 5604 5605 5608
5630 5630 5629 5627 5625 5622 5620 5619 5617 5616 5614 5612 5610 5608 5606 5605 5603 5602 5600 5598 5597 5596 5596 5596 5595 5593 5592 5593 5596 5597 5596 5597 5598 5598 5599 5598 5599 5601
5623 5621 5619 5618 5616 5614 5612 5610 5609 5607 5606 5603 5601 5599 5597 5596 5594 5592 5592 5590 5589 5588 5588 5587 5587 5585 5584 5584 5586 5589 5591 5591 5591 5591 5592 5593 5593 5594
5616 5614 5612 5610 5607 5605 5603 5602 5600 5598 5597 5594 5592 5590 5589 5586 5585 5584 5583 5582 5580 5579 5578 5579 5579 5579 5579 5578 5579 5581 5583 5585 5585 5585 5585 5585 5585 5585
5609 5607 5604 5602 5599 5597 5595 5593 5591 5590 5588 5586 5584 5582 5581 5579 5577 5576 5575 5574 5573 5572 5571 5571 5572 5571 5571 5570 5571 5573 5575 5577 5578 5579 5579 5579 5578 5578
5601 5598 5596 5593 5590 5588 5587 5584 5582 5581 5579 5577 5576 5574 5572 5570 5569 5568 5568 5567 5565 5564 5564 5563 5563 5563 5563 5564 5565 5566 5568 5569 5571 5572 5571 5573 5574 5575